COSMOS 1275 DEB, 13471

Orbit data source: Space-Track

COSMOS 1275 DEB, 13471 is space debris in LEO originally from a launch on Thu, 04 Jun 1981 UTC launched from the Plesetsk Missile And Space Complex (PKMTR). Debris objects in space refer to the collection of defunct objects orbiting the Earth. Examples of debris include non-operational satellites, rocket bodies, and fragments generated from explosions, collisions, or faulty payload assembly.

Loading next visibility...
Identifier
13471, 1981-053FT
Orbit
LEO
Country
Flag of CISCIS
Related business
Manufacturer
Unknown
Mission
Spacecraft
Bus & Motor
Unknown
Mass
Unknown
Launch date (UTC)
1981-06-04 (44 years ago)
Launch vehicle
Unknown
Launch site
Plesetsk Missile And Space Complex (PKMTR)
Object type
Payload
Rocket body
Debris
Shape & HBR
Unknown shape, 0.1 m
Radar Cross Section
Small (<0.1 m²)

Expand to show TLE details & history
Last TLE update: 9 hours ago

TLE from 9 hours ago
0 COSMOS 1275 DEB
1 13471U 81053FT  25286.62257955  .00002541  00000-0  16400-2 0  9992
2 13471  82.8096  22.1534 0049030 309.1448 144.6811 14.02001589192976
Epoch: 2025-10-13T14:56Z
TLE epoch observation values (Epoch: 2025-10-13T14:56:30.873Z)
Latitude
81.74405°
Longitude
-104.27243°
Altitude
929.508 km
Speed
7.379 km/s
True Right ascension
09h 29m 06s
True Declination
81° 41' 46"
Sunlit
Object was in daylight at epoch
Visualization orbit readout
Latitude
Unknown
Longitude
Unknown
Altitude
Unknown
Speed
Unknown
Apparent Right ascension
Unknown
Apparent Declination
Unknown
Sunlit
N/A
Visualization observer readout
Local Sidereal Time
18:35:15
Azimuth
Unknown
Elevation
Unknown
Doppler factor
Unknown
Orbital elements
Apogee altitude
919.595 km
Perigee altitude
848.383 km
Semi-major axis
7,262.126 km
Eccentricity
0.0049
Inclination
82.8096°
RAAN
22.1534°
Arg. of periapsis
309.1448°
True anomaly
145.0043°
Mean anomaly
144.6811°
Eccentric anomaly
144.84286°
Mean motion
3.50709 °/min
Orbital period
102.65 mins
BSTAR
0.00164
Loading maneuver chart data...
Computing Atmospheric mass density...

Documentation

Showing up to 5 results
|